Regional Weather Roundup
Issued by NWS

Home | Current Version | Previous Version | Graphics & Text | Print | Product List | Glossary On
Versions: 1 2 3 4 5 6 7 8 9 10 11 12 13 14 15 16 17 18 19 20 21 22 23 24 25 26 27 28 29 30 31 32 33 34 35 36 37 38 39 40 41 42 43 44 45 46 47 48 49 50
000
ASUS43 KFSD 181302
RWRSD

WEATHER ROUNDUP FOR SOUTH DAKOTA
NATIONAL WEATHER SERVICE SIOUX FALLS SD
800 AM CDT WED OCT 18 2017

NOTE: "FAIR" INDICATES FEW OR NO CLOUDS BELOW 12,000 FEET WITH NO
SIGNIFICANT WEATHER AND/OR OBSTRUCTIONS TO VISIBILITY.


SDZ001>005-009-010-012>017-181400-
NORTHWEST AND NORTH CENTRAL SOUTH DAKOTA

CITY           SKY/WX    TMP DP  RH WIND       PRES   REMARKS
BUFFALO          N/A     46  29  51 NW13      29.91R
FAITH            N/A     51  26  37 N23G31    29.89R
MOBRIDGE       CLOUDY    55  34  45 NW8       29.83R
$$

SDZ012>016-024>037-041>051-057-063-072>074-181400-
SOUTHWEST AND SOUTH CENTRAL SOUTH DAKOTA

CITY           SKY/WX    TMP DP  RH WIND       PRES   REMARKS
RAPID CTY ARPT CLEAR     55  25  31 N20       29.97R
PIERRE         PTCLDY    50  35  56 NW15      29.82R
CUSTER         CLEAR     52  14  22 CALM      30.02R
ELLSWORTH AFB  CLEAR     56  25  30 N20G25    29.98R
PHILIP         PTCLDY    55  30  38 N13       29.89R
PINE RIDGE     PTCLDY    47  25  42 CALM      29.94R
SPEARFISH      FAIR      46  27  46 N9        30.01R
WINNER         FAIR      54  29  38 NW9       29.82R
$$

SDZ004>011-016>023-039-040-181400-
NORTHEAST SOUTH DAKOTA

CITY           SKY/WX    TMP DP  RH WIND       PRES   REMARKS
ABERDEEN       CLOUDY    39  37  92 CALM      29.78R
WATERTOWN      CLOUDY    41  40  96 CALM      29.74R
BROOKINGS      CLOUDY    47  42  83 S7        29.76R
SISSETON         N/A     58  40  51 W20G30    29.72R
$$

SDZ017-020-022-023-036>040-048>070-181400-
SOUTHEAST SOUTH DAKOTA

CITY           SKY/WX    TMP DP  RH WIND       PRES   REMARKS
SIOUX FALLS    PTCLDY    51  45  79 S5        29.79R
HURON          CLOUDY    40  38  93 CALM      29.77R
MITCHELL       CLOUDY    45  40  82 S3        29.77R
YANKTON        CLEAR     50  43  77 SE7       29.78F
$$

ABBREVIATIONS USED IN REMARKS
   TC - TEMPERATURE IN CELSIUS
  WCI - WIND CHILL INDEX
   HX - HEAT INDEX
  VSB - VISIBILITY





USA.gov is the U.S. government's official web portal to all federal, state and local government web resources and services.